ABS-2A (MONGOLSAT-1)

Last updated on Sat Jul 05 2025 00:02:46 GMT+0000 (Coordinated Universal Time)

1 41588U 16038A 25185.65158387 -.00000069 00000+0 00000+0 0 9992 2 41588 0.0106 358.1010 0001667 61.8052 172.2953 1.00269918 33208
UTC large
Height (km)
Speed (km/s)
/
Latitude / Longitude
Inclination (degrees)
Orbital Period (minutes)
Azimuth
Elevation
Range (km)
Doppler Factor

Next 0 passes for location: London (51.5072 / 0.1276)

Sorry there are no passes over London.